TimeCST,TemperatureF,Dew PointF,Humidity,Sea Level PressureIn,VisibilityMPH,Wind Direction,Wind SpeedMPH,Gust SpeedMPH,PrecipitationIn,Events,Conditions,WindDirDegrees,DateUTC
12:15 AM,28.4,23.0,80,30.19,10.0,WNW,9.2,-,N/A,,Clear,290,2013-01-09 06:15:00
12:35 AM,27.5,22.8,83,30.20,10.0,West,8.1,-,N/A,,Clear,280,2013-01-09 06:35:00
12:55 AM,27.3,22.8,83,30.20,10.0,Calm,Calm,-,N/A,,Clear,0,2013-01-09 06:55:00
1:15 AM,27.7,22.5,81,30.21,10.0,West,4.6,-,N/A,,Clear,260,2013-01-09 07:15:00
1:35 AM,23.7,20.3,87,30.20,10.0,NW,3.5,-,N/A,,Clear,310,2013-01-09 07:35:00
1:55 AM,23.9,20.8,88,30.20,10.0,WNW,3.5,-,N/A,,Clear,290,2013-01-09 07:55:00
2:15 AM,25.7,21.9,86,30.22,10.0,WSW,6.9,-,N/A,,Clear,240,2013-01-09 08:15:00
2:35 AM,25.3,21.4,85,30.22,10.0,SW,4.6,-,N/A,,Clear,230,2013-01-09 08:35:00
2:55 AM,24.6,20.8,86,30.21,10.0,WSW,4.6,-,N/A,,Clear,250,2013-01-09 08:55:00
3:15 AM,25.0,21.2,86,30.22,10.0,WSW,6.9,-,N/A,,Clear,240,2013-01-09 09:15:00
3:35 AM,24.3,20.3,85,30.21,10.0,SW,3.5,-,N/A,,Clear,230,2013-01-09 09:35:00
3:55 AM,26.2,21.9,84,30.21,10.0,SW,9.2,-,N/A,,Clear,220,2013-01-09 09:55:00
4:15 AM,24.3,20.1,84,30.21,10.0,NW,3.5,-,N/A,,Clear,310,2013-01-09 10:15:00
4:35 AM,23.7,19.6,84,30.21,10.0,West,3.5,-,N/A,,Clear,270,2013-01-09 10:35:00
4:55 AM,23.0,19.4,86,30.20,10.0,Calm,Calm,-,N/A,,Clear,0,2013-01-09 10:55:00
5:15 AM,23.0,19.0,85,30.19,10.0,Calm,Calm,-,N/A,,Clear,0,2013-01-09 11:15:00
5:35 AM,23.0,18.9,84,30.19,10.0,West,3.5,-,N/A,,Clear,270,2013-01-09 11:35:00
5:55 AM,20.8,17.6,87,30.19,10.0,SW,4.6,-,N/A,,Clear,220,2013-01-09 11:55:00
6:15 AM,21.9,18.7,87,30.20,10.0,WSW,4.6,-,N/A,,Clear,250,2013-01-09 12:15:00
6:35 AM,23.9,20.1,85,30.20,10.0,South,3.5,-,N/A,,Clear,170,2013-01-09 12:35:00
6:55 AM,24.3,20.1,84,30.20,10.0,SSW,10.4,-,N/A,,Clear,210,2013-01-09 12:55:00
7:15 AM,24.6,19.4,81,30.20,10.0,WSW,4.6,-,N/A,,Clear,240,2013-01-09 13:15:00
7:35 AM,24.6,20.3,84,30.22,10.0,SSW,9.2,-,N/A,,Clear,210,2013-01-09 13:35:00
7:55 AM,28.0,21.7,77,30.24,10.0,SSW,11.5,-,N/A,,Clear,200,2013-01-09 13:55:00
8:15 AM,27.0,21.2,79,30.25,10.0,SSW,10.4,-,N/A,,Clear,200,2013-01-09 14:15:00
8:35 AM,27.3,21.4,78,30.26,10.0,SSW,11.5,-,N/A,,Clear,200,2013-01-09 14:35:00
8:55 AM,28.2,21.9,77,30.27,10.0,South,17.3,-,N/A,,Clear,190,2013-01-09 14:55:00
9:15 AM,29.5,22.8,76,30.28,10.0,SSW,13.8,-,N/A,,Clear,210,2013-01-09 15:15:00
9:35 AM,31.1,23.5,74,30.28,10.0,SSW,15.0,-,N/A,,Clear,200,2013-01-09 15:35:00
9:55 AM,32.4,24.3,72,30.29,10.0,SSW,12.7,-,N/A,,Clear,200,2013-01-09 15:55:00
10:15 AM,34.0,24.3,68,30.29,10.0,SSW,21.9,26.5,N/A,,Clear,200,2013-01-09 16:15:00
10:35 AM,35.6,24.4,64,30.30,10.0,SSW,15.0,23.0,N/A,,Clear,210,2013-01-09 16:35:00
10:55 AM,39.2,25.3,58,30.30,10.0,SW,19.6,24.2,N/A,,Clear,220,2013-01-09 16:55:00
11:15 AM,42.8,25.3,50,30.30,10.0,SW,23.0,28.8,N/A,,Clear,220,2013-01-09 17:15:00
11:35 AM,44.2,24.8,46,30.29,10.0,SW,21.9,32.2,N/A,,Clear,220,2013-01-09 17:35:00
11:55 AM,45.5,25.2,45,30.28,10.0,SW,28.8,33.4,N/A,,Clear,230,2013-01-09 17:55:00
12:15 PM,47.7,25.2,41,30.27,10.0,SW,21.9,33.4,N/A,,Clear,230,2013-01-09 18:15:00
12:35 PM,47.5,25.7,43,30.27,10.0,SW,21.9,31.1,N/A,,Clear,230,2013-01-09 18:35:00
12:55 PM,47.5,25.9,43,30.26,10.0,SW,21.9,31.1,N/A,,Clear,230,2013-01-09 18:55:00
1:15 PM,48.4,26.4,42,30.24,10.0,SW,18.4,29.9,N/A,,Clear,220,2013-01-09 19:15:00
1:35 PM,49.3,26.4,41,30.23,10.0,SW,20.7,28.8,N/A,,Clear,230,2013-01-09 19:35:00
1:55 PM,50.2,26.4,40,30.22,10.0,SW,17.3,26.5,N/A,,Clear,220,2013-01-09 19:55:00
2:15 PM,50.9,26.2,38,30.21,10.0,SW,20.7,27.6,N/A,,Clear,230,2013-01-09 20:15:00
2:35 PM,51.3,25.5,37,30.21,10.0,SW,19.6,26.5,N/A,,Clear,230,2013-01-09 20:35:00
2:55 PM,51.6,26.4,38,30.20,10.0,SW,15.0,-,N/A,,Clear,220,2013-01-09 20:55:00
3:15 PM,51.8,26.2,37,30.20,10.0,SW,16.1,20.7,N/A,,Clear,220,2013-01-09 21:15:00
3:35 PM,52.0,25.7,36,30.19,10.0,SW,15.0,21.9,N/A,,Clear,220,2013-01-09 21:35:00
3:55 PM,51.8,25.7,36,30.19,10.0,SSW,12.7,20.7,N/A,,Clear,210,2013-01-09 21:55:00
4:15 PM,51.1,26.4,38,30.19,10.0,SSW,11.5,-,N/A,,Clear,200,2013-01-09 22:15:00
4:35 PM,50.0,27.5,42,30.19,10.0,South,11.5,-,N/A,,Clear,190,2013-01-09 22:35:00
4:55 PM,48.0,27.5,45,30.18,10.0,South,9.2,-,N/A,,Clear,190,2013-01-09 22:55:00
5:15 PM,45.1,27.9,51,30.17,10.0,South,8.1,-,N/A,,Clear,170,2013-01-09 23:15:00
5:35 PM,43.0,27.5,54,30.17,10.0,South,9.2,-,N/A,,Clear,180,2013-01-09 23:35:00
5:55 PM,41.2,27.5,58,30.17,10.0,South,8.1,-,N/A,,Clear,180,2013-01-09 23:55:00
6:15 PM,41.0,27.5,59,30.16,10.0,South,9.2,-,N/A,,Clear,190,2013-01-10 00:15:00
6:35 PM,39.0,27.5,63,30.16,10.0,South,5.8,-,N/A,,Clear,190,2013-01-10 00:35:00
6:55 PM,38.7,27.5,64,30.16,10.0,Calm,Calm,-,N/A,,Clear,0,2013-01-10 00:55:00
7:15 PM,37.4,28.0,69,30.15,10.0,South,5.8,-,N/A,,Clear,190,2013-01-10 01:15:00
7:35 PM,37.6,28.0,68,30.15,10.0,South,8.1,-,N/A,,Clear,180,2013-01-10 01:35:00
7:55 PM,37.6,28.0,68,30.15,10.0,South,6.9,-,N/A,,Clear,190,2013-01-10 01:55:00
8:15 PM,36.3,27.5,70,30.14,10.0,South,8.1,-,N/A,,Clear,180,2013-01-10 02:15:00
8:35 PM,39.0,27.9,64,30.14,10.0,South,11.5,-,N/A,,Clear,180,2013-01-10 02:35:00
8:55 PM,40.3,27.9,61,30.14,10.0,South,10.4,-,N/A,,Clear,180,2013-01-10 02:55:00
9:15 PM,41.0,28.2,60,30.14,10.0,South,15.0,-,N/A,,Clear,180,2013-01-10 03:15:00
9:35 PM,40.6,28.8,63,30.15,10.0,South,17.3,23.0,N/A,,Clear,180,2013-01-10 03:35:00
9:55 PM,40.3,28.4,63,30.14,10.0,South,15.0,23.0,N/A,,Clear,190,2013-01-10 03:55:00
10:15 PM,39.7,28.4,64,30.14,10.0,South,20.7,26.5,N/A,,Clear,190,2013-01-10 04:15:00
10:35 PM,39.6,27.7,62,30.13,10.0,South,19.6,26.5,N/A,,Clear,190,2013-01-10 04:35:00
10:55 PM,39.6,26.8,60,30.13,10.0,South,18.4,25.3,N/A,,Clear,190,2013-01-10 04:55:00
11:15 PM,39.6,26.2,59,30.13,10.0,South,20.7,26.5,N/A,,Clear,190,2013-01-10 05:15:00
11:35 PM,39.4,26.2,59,30.13,10.0,South,20.7,27.6,N/A,,Clear,190,2013-01-10 05:35:00
11:55 PM,39.6,26.6,60,30.14,10.0,South,18.4,26.5,N/A,,Clear,190,2013-01-10 05:55:00